Tracking 30995 objects as of 5-Jul-2025
HD Live streaming from Space Station
objects crossing your sky now

STARLINK-4519

Track STARLINK-4519 now!
10-day predictions
STARLINK-4519 is classified as:


NORAD ID: 53439
Int'l Code: 2022-097BD
Perigee: 546.0 km
Apogee: 547.7 km
Inclination: 53.2 °
Period: 95.4 minutes
Semi major axis: 6917 km
RCS: Unknown
Launch date: August 10, 2022
Source: United States (US)
Launch site: AIR FORCE EASTERN TEST RANGE (AFETR)
Your satellite tracking list
SL-8 R/B
Track 1 satellite(s)




NASA's NSSDC Master Catalog

Two Line Element Set (TLE):
1 53439U 22097BD  25186.26064338  .00000398  00000-0  43103-4 0  9993
2 53439  53.2164 134.6412 0001261  85.5622 274.5514 15.08843185161443
Source of the keplerian elements: AFSPC